Torna al catalogo

CZ-6A DEB

AttivoSSO
NORAD 54400·DEBRIS·🇨🇳 China

Lanciato Nov 11, 2022 da Taiyuan Satellite Launch Center

Loading…

Prossimi Passaggi (prossime 24 ore)

TLE

AggiornatoSource: Space-Track

Epoca: Sep 14, 2026, 22:01 UTC

1 54400U 22151DY  26257.91781501  .00001623  00000-0  31350-3 0  9995
2 54400  98.5705 329.2059 0118657 319.8045  39.4423 14.60557060203595

Traccia CZ-6A DEB in tempo reale con AllMySat

Download on the App Store